Regional Weather Roundup
Issued by NWS Cleveland, OH

Home | Current Version | Previous Version | Text Only | Print | Product List | Glossary On
Versions: 1 2 3 4 5 6 7 8 9 10 11 12 13 14 15 16 17 18 19 20 21 22 23 24 25 26 27 28 29 30 31 32 33 34 35 36 37 38 39 40 41 42 43 44 45 46 47 48 49 50
000
ASUS41 KCLE 290510
RWRCLE
OHIO REGIONAL WEATHER ROUNDUP
NATIONAL WEATHER SERVICE WILMINGTON, OH
100 AM EDT SUN MAR 29 2015

NOTE: "FAIR" INDICATES FEW OR NO CLOUDS BELOW 12,000 FEET WITH NO
SIGNIFICANT WEATHER AND/OR OBSTRUCTIONS TO VISIBILITY.

OHZ001>008-015>018-024>027-034-035-043-044-290600-
   NORTHWEST OHIO

CITY           SKY/WX    TMP DP  RH WIND       PRES   REMARKS
DEFIANCE       CLEAR     25  15  66 S3        30.33R
FINDLAY        CLEAR     25  16  68 SW6       30.32R WCI  18
TOLEDO EXPRESS CLEAR     24  13  62 SW5       30.32R WCI  18
TOLEDO EXEC    CLEAR     25  15  66 SW6       30.34R WCI  18
LIMA           CLEAR     27  15  61 SW7       30.32R WCI  19
$$

OHZ009>014-019>023-028>033-038-089-290600-
   NORTHEAST OHIO

CITY           SKY/WX    TMP DP  RH WIND       PRES   REMARKS
CLE-HOPKINS    CLEAR     20  12  71 SW5       30.35R WCI  13
CLE-LAKEFRONT  CLEAR     23  11  60 SW6       30.33R WCI  16
CUY CO. ARPT   NOT AVBL
LORAIN-ELYRIA  CLEAR     21  14  74 S5        30.32S WCI  15
ASHTABULA      CLEAR     19  12  74 W3        30.30S
AKRON-CANTON   CLEAR     20   9  62 SW3       30.30R
WOOSTER        CLEAR     19  13  77 CALM      30.31S
MANSFIELD      CLEAR     19  10  68 SW6       30.29S WCI  11
YOUNGSTOWN     CLEAR     18  10  71 W3        30.28S
$$

OHZ042-051>053-060>062-070>072-077>081-290600-
  SOUTHWEST OHIO

CITY           SKY/WX    TMP DP  RH WIND       PRES   REMARKS
CINC-COVINGTON CLEAR     27  15  61 CALM      30.35S
CINC-LUNKEN    CLEAR     25  19  78 CALM      30.39S
HAMILTON       CLEAR     21  17  84 CALM      30.37F
DAYTON         CLEAR     27  14  58 S3        30.34S
WRIGHT-PAT AFB CLEAR     23  15  74 W1        30.34F
DAYTON GENERAL CLEAR     24  15  68 E3        30.33F
WILMINGTON     CLEAR     24  16  71 CALM      30.34F
$$

OHZ036-037-039>041-045>050-054>059-063>069-073>076-082>088-290600-
  CENTRAL AND SOUTHEAST OHIO

CITY           SKY/WX    TMP DP  RH WIND       PRES   REMARKS
COLUMBUS       CLEAR     23  13  65 CALM      30.35S
OSU AIRPORT    CLEAR     22  12  65 SW3       30.34S
BOLTON FIELD   CLEAR    N/A N/A N/A SW3       30.36R
RICKENBACK AFB CLEAR     21  15  75 S3        30.36S
NEWARK         CLEAR     20  15  81 CALM      30.34R
MARION         CLEAR     20  13  74 S7        30.33R WCI  11
LANCASTER      CLEAR     20  15  81 CALM      30.36R
ZANESVILLE     CLEAR     18  12  77 SW3       30.34R
NEW PHILLY     CLEAR     20  12  71 CALM      30.34R
$$


USA.gov is the U.S. government's official web portal to all federal, state and local government web resources and services.